Weather History for Mosby, MO

Change the Weather History Date:

Wednesday, November 21, 2012

  Actual Average (KMKC) Record (KMKC)
Temperature  
Mean Temperature 52 °F -  
Max Temperature 71 °F 51 °F 73 °F (2010)
Min Temperature 32 °F 34 °F 18 °F (2000)
Degree Days  
Heating Degree Days 14    
Growing Degree Days 2 (Base 50)    
Moisture  
Dew Point 36 °F    
Average Humidity 65    
Maximum Humidity 100    
Minimum Humidity 28    
Precipitation  
Precipitation 0.00 in - - ()
Sea Level Pressure  
Sea Level Pressure 30.13 in    
Wind  
Wind Speed 3 mph ()    
Max Wind Speed 15 mph    
Max Gust Speed 20 mph    
Visibility 8.2 miles    
Events      
Averages and records for this station are not official NWS values.
T = Trace of Precipitation, MM = Missing Value Source: Averaged Metar Reports

Daily Weather History Graph

Daily Weather History Graph

Search for Another Location

Airport:

Trip Planner

Search our weather history database for the weather conditions in past years. The results will help you decide how hot, cold, wet, or windy it might be!

Date:

Astronomy

Nov. 21, 2012 Rise Set
Actual Time 7:08 AM CST 4:58 PM CST
Civil Twilight 6:38 AM CST 5:27 PM CST
Nautical Twilight 6:06 AM CST 5:59 PM CST
Astronomical Twilight 5:34 AM CST 6:31 PM CST
Moon 1:13 PM CST (11/21) 12:30 AM CST (11/21)
Length of Visible Light 10h 48m
Length of Day
9h 49m
First Quarter, 62% of the Moon is Illuminated
Nov 21
First Quarter
Nov 28
Full
Dec 6
Last Quarter
Dec 13
New
Dec 19
First Quarter

Hourly Weather History & Observations

Time (CST) Temp. Windchill Dew Point Humidity Pressure Visibility Wind Dir Wind Speed Gust Speed Precip Events Conditions
12:15 AM 33.8 °F - 32.0 °F 93% 30.22 in 5.0 mi Calm Calm - N/A   Clear
12:35 AM 33.8 °F - 32.0 °F 93% 30.21 in 5.0 mi Calm Calm - N/A   Mist
1:15 AM 32.0 °F - 32.0 °F 100% 30.21 in 7.0 mi Calm Calm - N/A   Clear
1:35 AM 32.0 °F - 32.0 °F 100% 30.21 in 5.0 mi Calm Calm - N/A   Mist
2:15 AM 32.0 °F - 32.0 °F 100% 30.21 in 5.0 mi Calm Calm - N/A   Clear
2:35 AM 32.0 °F - 32.0 °F 100% 30.21 in 5.0 mi Calm Calm - N/A   Clear
2:55 AM 32.0 °F - 32.0 °F 100% 30.21 in 5.0 mi Calm Calm - N/A   Clear
3:15 AM 32.0 °F - 32.0 °F 100% 30.21 in 4.0 mi Calm Calm - N/A   Clear
3:35 AM 32.0 °F - 32.0 °F 100% 30.21 in 5.0 mi Calm Calm - N/A   Clear
3:55 AM 32.0 °F - 32.0 °F 100% 30.21 in 7.0 mi Calm Calm - N/A   Clear
4:15 AM 32.0 °F - 32.0 °F 100% 30.21 in 5.0 mi Calm Calm - N/A   Clear
4:35 AM 32.0 °F - 30.2 °F 93% 30.20 in 7.0 mi Calm Calm - N/A   Clear
4:55 AM 32.0 °F - 32.0 °F 100% 30.20 in 5.0 mi Calm Calm - N/A   Clear
5:15 AM 32.0 °F - 30.2 °F 93% 30.20 in 5.0 mi Calm Calm - N/A   Clear
5:35 AM 32.0 °F - 30.2 °F 93% 30.20 in 7.0 mi Calm Calm - N/A   Clear
5:55 AM 32.0 °F - 30.2 °F 93% 30.20 in 7.0 mi Calm Calm - N/A   Clear
6:15 AM 32.0 °F - 30.2 °F 93% 30.20 in 5.0 mi Calm Calm - N/A   Clear
6:35 AM 32.0 °F - 30.2 °F 93% 30.20 in 7.0 mi Calm Calm - N/A   Clear
6:55 AM 32.0 °F - 30.2 °F 93% 30.20 in 7.0 mi Calm Calm - N/A   Clear
7:15 AM 32.0 °F - 30.2 °F 93% 30.20 in 7.0 mi Calm Calm - N/A   Clear
7:35 AM 32.0 °F - 30.2 °F 93% 30.20 in 7.0 mi Calm Calm - N/A   Clear
7:55 AM 32.0 °F - 32.0 °F 100% 30.20 in 5.0 mi Calm Calm - N/A   Clear
8:15 AM 32.0 °F - 32.0 °F 100% 30.21 in 5.0 mi Calm Calm - N/A   Clear
8:35 AM 35.6 °F - 33.8 °F 93% 30.21 in 5.0 mi Calm Calm - N/A   Clear
8:55 AM 39.2 °F - 37.4 °F 93% 30.21 in 5.0 mi Calm Calm - N/A   Clear
9:15 AM 44.6 °F 43.1 °F 41.0 °F 87% 30.21 in 7.0 mi ESE 3.5 mph - N/A   Clear
9:35 AM 46.4 °F 45.2 °F 42.8 °F 87% 30.21 in 7.0 mi ESE 3.5 mph - N/A   Clear
9:55 AM 48.2 °F - 42.8 °F 82% 30.20 in 10.0 mi ESE 4.6 mph - N/A   Clear
10:15 AM 51.8 °F - 44.6 °F 76% 30.21 in 5.0 mi SE 3.5 mph - N/A   Haze
10:35 AM 59.0 °F - 42.8 °F 55% 30.20 in 10.0 mi SSW 12.7 mph 19.6 mph N/A   Unknown
11:15 AM 62.6 °F - 42.8 °F 48% 30.19 in 10.0 mi South 9.2 mph - N/A   Clear
11:35 AM 62.6 °F - 41.0 °F 45% 30.18 in 10.0 mi SSW 9.2 mph - N/A   Clear
11:55 AM 64.4 °F - 41.0 °F 42% 30.17 in 10.0 mi South 10.4 mph 16.1 mph N/A   Clear
12:15 PM 68.0 °F - 37.4 °F 33% 30.15 in 10.0 mi SSW 11.5 mph - N/A   Clear
12:35 PM 68.0 °F - 35.6 °F 30% 30.15 in 10.0 mi South 13.8 mph 18.4 mph N/A   Clear
12:55 PM 69.8 °F - 35.6 °F 28% 30.13 in 10.0 mi SSW 13.8 mph 19.6 mph N/A   Clear
1:15 PM 69.8 °F - 35.6 °F 28% 30.12 in 10.0 mi SSW 12.7 mph - N/A   Clear
1:35 PM 69.8 °F - 35.6 °F 28% 30.12 in 10.0 mi SSW 11.5 mph 18.4 mph N/A   Clear
1:55 PM 69.8 °F - 35.6 °F 28% 30.11 in 10.0 mi SSW 13.8 mph - N/A   Clear
2:15 PM 69.8 °F - 35.6 °F 28% 30.10 in 10.0 mi SSW 15.0 mph - N/A   Clear
2:35 PM 71.6 °F - 37.4 °F 29% 30.09 in 10.0 mi SSW 12.7 mph 18.4 mph N/A   Clear
3:15 PM 71.6 °F - 37.4 °F 29% 30.07 in 10.0 mi South 11.5 mph 16.1 mph N/A   Clear
3:35 PM 71.6 °F - 37.4 °F 29% 30.07 in 10.0 mi South 10.4 mph - N/A   Clear
3:55 PM 69.8 °F - 37.4 °F 31% 30.06 in 10.0 mi South 9.2 mph - N/A   Clear
4:15 PM 69.8 °F - 37.4 °F 31% 30.06 in 10.0 mi SSE 8.1 mph - N/A   Clear
4:35 PM 68.0 °F - 37.4 °F 33% 30.06 in 10.0 mi South 6.9 mph - N/A   Clear
4:55 PM 68.0 °F - 37.4 °F 33% 30.05 in 10.0 mi SSE 8.1 mph - N/A   Clear
5:15 PM 64.4 °F - 37.4 °F 37% 30.05 in 10.0 mi SSE 6.9 mph - N/A   Clear
5:35 PM 64.4 °F - 37.4 °F 37% 30.05 in 10.0 mi SSE 4.6 mph - N/A   Clear
5:55 PM 62.6 °F - 39.2 °F 42% 30.05 in 10.0 mi SE 5.8 mph - N/A   Clear
6:15 PM 60.8 °F - 41.0 °F 48% 30.05 in 10.0 mi SE 5.8 mph - N/A   Clear
6:35 PM 60.8 °F - 41.0 °F 48% 30.05 in 10.0 mi SSE 5.8 mph - N/A   Clear
7:15 PM 60.8 °F - 39.2 °F 45% 30.03 in 10.0 mi SSE 8.1 mph - N/A   Clear
7:35 PM 59.0 °F - 41.0 °F 51% 30.03 in 10.0 mi SSE 6.9 mph - N/A   Clear
7:55 PM 59.0 °F - 41.0 °F 51% 30.03 in 10.0 mi SE 5.8 mph - N/A   Clear
8:15 PM 55.4 °F - 41.0 °F 58% 30.02 in 10.0 mi SSE 3.5 mph - N/A   Clear
8:35 PM 55.4 °F - 39.2 °F 54% 30.02 in 10.0 mi SSE 4.6 mph - N/A   Clear
8:55 PM 57.2 °F - 39.2 °F 51% 30.02 in 10.0 mi South 5.8 mph - N/A   Clear
9:15 PM 59.0 °F - 39.2 °F 48% 30.02 in 10.0 mi South 9.2 mph - N/A   Clear
9:35 PM 59.0 °F - 39.2 °F 48% 30.02 in 10.0 mi South 8.1 mph - N/A   Clear
9:55 PM 57.2 °F - 39.2 °F 51% 30.02 in 10.0 mi South 10.4 mph - N/A   Clear
10:15 PM 57.2 °F - 39.2 °F 51% 30.01 in 10.0 mi South 10.4 mph - N/A   Clear
10:35 PM 57.2 °F - 39.2 °F 51% 30.01 in 10.0 mi South 9.2 mph - N/A   Clear
10:55 PM 55.4 °F - 39.2 °F 54% 30.00 in 10.0 mi SSE 8.1 mph - N/A   Unknown
11:15 PM 55.4 °F - 37.4 °F 51% 29.99 in 10.0 mi SSE 8.1 mph - N/A   Clear
11:35 PM 55.4 °F - 37.4 °F 51% 29.99 in 10.0 mi SSE 8.1 mph - N/A   Clear
11:55 PM 55.4 °F - 37.4 °F 51% 29.99 in 10.0 mi SSE 5.8 mph - N/A   Unknown